This demonstration page uses our WeatherBlox Daily Observations layout. Learn more.

Left ArrowRight Arrow

36.19886, -115.1175

Hourly Observations for February 13, 2017

Temp ( °F °C ) Dew Point ( °F °C ) Humidity (%) Winds ( mph kmh ) Pressure ( in mb ) Visibility ( mi km ) Precip ( " mm )
12:53 am 00:53 Cloudy 58 14.4 29 -1.7 33 33 N 18 30 30.13 1020 10 16 0.00 0.03
1:53 am 01:53 Clear 56 13.3 28 -2.2 34 34 N 13 20 30.13 1020 10 16 0.00 0.00
2:53 am 02:53 Clear 56 13.3 28 -2.2 34 34 N 16 26 30.12 1020 10 16 0.00 0.00
3:53 am 03:53 Clear 54 12.2 28 -2.2 37 37 N 15 24 30.12 1020 10 16 0.00 0.00
4:53 am 04:53 Clear 53 11.7 28 -2.2 38 38 N 13 20 30.13 1020 10 16 0.00 0.00
5:53 am 05:53 Clear 52 11.1 28 -2.2 40 40 N 16 26 30.15 1021 10 16 0.00 0.00
6:53 am 06:53 Sunny 50 10 28 -2.2 43 43 N 14 22 30.18 1022 10 16 0.00 0.00
7:53 am 07:53 Sunny 54 12.2 26 -3.3 34 34 N 15 24 30.18 1022 10 16 0.00 0.00
8:53 am 08:53 Sunny 58 14.4 28 -2.2 32 32 N 12 19 30.17 1022 10 16 0.00 0.00
9:53 am 09:53 Sunny 60 15.6 26 -3.3 27 27 N 15 24 30.17 1022 10 16 0.00 0.00
11:53 am 11:53 Sunny 65 18.3 27 -2.8 24 24 NE 9 15 30.12 1020 10 16 0.00 0.00
12:53 pm 12:53 Sunny 66 19 27 -3 22 22 NNE 8 13 30.00 1016 10 16 0.00 0.00
1:53 pm 13:53 Sunny 68 20 26 -3.3 21 21 NNE 8 13 30.07 1018 10 16 0.00 0.00
2:53 pm 14:53 Sunny 70 21.1 26 -3.3 19 19 ENE 8 13 30.06 1018 10 16 0.00 0.00
3:53 pm 15:53 Sunny 70 21.1 27 -2.8 20 20 VRB 5 7 30.05 1018 10 16 0.00 0.00
4:53 pm 16:53 Sunny 67 19.4 26 -3.3 21 21 E 7 11 30.06 1018 10 16 0.00 0.00
5:53 pm 17:53 Clear 64 17.8 29 -1.7 27 27 SE 6 9 30.07 1018 10 16 0.00 0.00
6:53 pm 18:53 Clear 61 16.1 30 -1.1 31 31 Calm 30.09 1019 10 16 0.00 0.00
7:53 pm 19:53 Clear 61 16.1 31 -0.6 32 32 Calm 30.09 1019 10 16 0.00 0.00
8:53 pm 20:53 Clear 56 13.3 33 0.6 42 42 Calm 30.10 1019 10 16 0.00 0.00
9:53 pm 21:53 Clear 53 11.7 34 1.1 48 48 NW 7 11 30.11 1020 10 16 0.00 0.00
10:53 pm 22:53 Clear 55 12.8 32 0 42 42 N 5 7 30.11 1020 10 16 0.00 0.00
11:53 pm 23:53 Clear 53 11.7 33 0.6 47 47 WNW 6 9 30.11 1020 10 16 0.00 0.00

Powered by AerisWeather